Weather History for Wise, VA

Change the Weather History Date:

Sunday, October 28, 2012

  Actual Average Record
Temperature  
Mean Temperature 38 °F -  
Max Temperature 42 °F 60 °F 73 °F (1999)
Min Temperature 33 °F 41 °F 26 °F (1997)
Degree Days  
Heating Degree Days 28    
Moisture  
Dew Point 40 °F    
Average Humidity 100    
Maximum Humidity 100    
Minimum Humidity 100    
Precipitation  
Precipitation 0.49 in - - ()
Sea Level Pressure  
Sea Level Pressure 29.89 in    
Wind  
Wind Speed 9 mph (NNW)    
Max Wind Speed 13 mph    
Max Gust Speed 20 mph    
Visibility 4 miles    
Events Fog , Rain , Snow    
Averages and records for this station are not official NWS values.
T = Trace of Precipitation, MM = Missing Value Source: NWS Daily Summary

Daily Weather History Graph

Daily Weather History Graph

Search for Another Location

Airport:

Trip Planner

Search our weather history database for the weather conditions in past years. The results will help you decide how hot, cold, wet, or windy it might be!

Date:

Astronomy

Oct. 28, 2012 Rise Set
Actual Time 7:50 AM EDT 6:36 PM EDT
Civil Twilight 7:23 AM EDT 7:03 PM EDT
Nautical Twilight 6:53 AM EDT 7:33 PM EDT
Astronomical Twilight 6:23 AM EDT 8:03 PM EDT
Moon 5:53 PM EDT (10/28) 6:43 AM EDT (10/28)
Length of Visible Light 11h 39m
Length of Day
10h 45m
Waxing Gibbous, 99% of the Moon is Illuminated
Oct 28
Waxing Gibbous
Oct 29
Full
Nov 6
Last Quarter
Nov 13
New
Nov 20
First Quarter

Hourly Weather History & Observations

Time (EDT) Temp. Windchill Dew Point Humidity Pressure Visibility Wind Dir Wind Speed Gust Speed Precip Events Conditions
12:15 AM 42.8 °F 37.5 °F 42.8 °F 100% 29.97 in 4.0 mi NNW 9.2 mph - N/A   Light Drizzle
12:35 AM 42.8 °F 38.6 °F 42.8 °F 100% 29.97 in 4.0 mi North 6.9 mph - N/A   Light Drizzle
12:55 AM 42.8 °F 38.6 °F 42.8 °F 100% 29.96 in 3.0 mi North 6.9 mph - N/A Rain Light Rain
1:15 AM 42.8 °F 38.6 °F 42.8 °F 100% 29.96 in 2.0 mi North 6.9 mph - N/A   Light Drizzle
1:35 AM 42.8 °F 38.6 °F 42.8 °F 100% 29.95 in 3.0 mi North 6.9 mph - N/A   Light Drizzle
2:15 AM 42.8 °F 37.0 °F 42.8 °F 100% 29.94 in 5.0 mi North 10.4 mph 16.1 mph N/A   Overcast
2:35 AM 42.8 °F 36.6 °F 42.8 °F 100% 29.93 in 5.0 mi North 11.5 mph - N/A   Overcast
2:55 AM 42.8 °F 38.0 °F 42.8 °F 100% 29.92 in 1.0 mi North 8.1 mph 16.1 mph N/A   Overcast
3:15 AM 42.8 °F 37.0 °F 42.8 °F 100% 29.92 in 1.2 mi North 10.4 mph - N/A   Drizzle
3:35 AM 42.8 °F 37.5 °F 42.8 °F 100% 29.91 in 3.0 mi North 9.2 mph - N/A Rain Light Rain
3:55 AM 42.8 °F 38.6 °F 42.8 °F 100% 29.90 in 1.8 mi North 6.9 mph - N/A   Drizzle
4:15 AM 42.8 °F 37.0 °F 42.8 °F 100% 29.89 in 2.5 mi North 10.4 mph - N/A   Light Drizzle
4:35 AM 42.8 °F 38.6 °F 42.8 °F 100% 29.89 in 1.8 mi North 6.9 mph - N/A   Overcast
4:55 AM 42.8 °F 38.0 °F 42.8 °F 100% 29.90 in 0.5 mi North 8.1 mph - N/A Fog Fog
5:15 AM 42.8 °F 37.5 °F 42.8 °F 100% 29.90 in 0.2 mi North 9.2 mph - N/A Fog Fog
5:35 AM 42.8 °F 38.0 °F 42.8 °F 100% 29.91 in 0.5 mi North 8.1 mph - N/A Fog Fog
5:55 AM 42.8 °F 37.5 °F 42.8 °F 100% 29.90 in 1.0 mi North 9.2 mph - N/A   Light Drizzle
6:15 AM 42.8 °F 36.6 °F 42.8 °F 100% 29.90 in 1.0 mi North 11.5 mph - N/A   Overcast
6:35 AM 42.8 °F 37.5 °F 42.8 °F 100% 29.89 in 1.8 mi North 9.2 mph - N/A   Overcast
6:55 AM 42.8 °F 37.5 °F 42.8 °F 100% 29.89 in 3.0 mi North 9.2 mph - N/A Rain Rain
7:15 AM 42.8 °F 40.1 °F 42.8 °F 100% 29.89 in 2.5 mi North 4.6 mph - N/A   Drizzle
7:35 AM 42.8 °F 37.5 °F 42.8 °F 100% 29.89 in 0.8 mi North 9.2 mph - N/A   Overcast
7:55 AM 42.8 °F 38.0 °F 42.8 °F 100% 29.89 in 0.2 mi North 8.1 mph - N/A Fog Fog
8:15 AM 42.8 °F 38.6 °F 42.8 °F 100% 29.89 in 1.0 mi North 6.9 mph - 0.01 in Rain Light Rain
8:35 AM 42.8 °F 38.6 °F 42.8 °F 100% 29.89 in 2.0 mi North 6.9 mph - 0.01 in Rain Light Rain
8:55 AM 42.8 °F 37.0 °F 42.8 °F 100% 29.89 in 2.0 mi North 10.4 mph 17.3 mph 0.01 in Rain Rain
9:15 AM 42.8 °F 37.5 °F 42.8 °F 100% 29.89 in 2.5 mi North 9.2 mph - 0.06 in Rain Heavy Rain
9:35 AM 42.8 °F 38.0 °F 42.8 °F 100% 29.90 in 1.0 mi North 8.1 mph - 0.17 in   Overcast
9:55 AM 42.8 °F 37.5 °F 42.8 °F 100% 29.89 in 7.0 mi North 9.2 mph - 0.19 in Rain Rain
10:15 AM 42.8 °F 37.5 °F 42.8 °F 100% 29.89 in 7.0 mi NNW 9.2 mph - N/A   Overcast
10:35 AM 42.8 °F 36.2 °F 42.8 °F 100% 29.88 in 10.0 mi NNW 12.7 mph 18.4 mph N/A   Overcast
10:55 AM 42.8 °F 36.6 °F 42.8 °F 100% 29.88 in 10.0 mi North 11.5 mph 16.1 mph N/A   Overcast
11:15 AM 42.8 °F 36.2 °F 42.8 °F 100% 29.88 in 7.0 mi North 12.7 mph 17.3 mph N/A   Overcast
11:35 AM 42.8 °F 38.0 °F 42.8 °F 100% 29.88 in 10.0 mi NNW 8.1 mph - N/A   Overcast
11:55 AM 42.8 °F 37.0 °F 42.8 °F 100% 29.88 in 10.0 mi NNW 10.4 mph - N/A   Overcast
12:15 PM 42.8 °F 37.5 °F 42.8 °F 100% 29.88 in 10.0 mi North 9.2 mph - N/A   Overcast
12:35 PM 42.8 °F 38.6 °F 42.8 °F 100% 29.88 in 7.0 mi NNW 6.9 mph - N/A   Light Drizzle
12:55 PM 42.8 °F 37.5 °F 42.8 °F 100% 29.87 in 4.0 mi North 9.2 mph - N/A   Drizzle
1:15 PM 42.8 °F 37.0 °F 42.8 °F 100% 29.86 in 4.0 mi North 10.4 mph - N/A Rain Rain
1:35 PM 41.0 °F 37.1 °F 41.0 °F 100% 29.85 in 2.5 mi NNW 5.8 mph - N/A Rain Light Rain
1:55 PM 41.0 °F 35.8 °F 41.0 °F 100% 29.86 in 2.5 mi NNW 8.1 mph - 0.01 in Rain Rain
2:15 PM 41.0 °F 34.7 °F 41.0 °F 100% 29.85 in 4.0 mi NNW 10.4 mph - 0.03 in Rain Rain
2:35 PM 41.0 °F 36.4 °F 41.0 °F 100% 29.85 in 5.0 mi NW 6.9 mph - 0.06 in Rain Rain
2:55 PM 41.0 °F 34.7 °F 41.0 °F 100% 29.85 in 10.0 mi NW 10.4 mph 19.6 mph 0.08 in Rain Light Rain
3:15 PM 41.0 °F 36.4 °F 41.0 °F 100% 29.86 in 10.0 mi NNW 6.9 mph 17.3 mph 0.01 in Rain Rain
3:35 PM 41.0 °F 36.4 °F 41.0 °F 100% 29.86 in 7.0 mi NW 6.9 mph - 0.03 in Rain Rain
3:55 PM 39.2 °F 33.0 °F 39.2 °F 100% 29.86 in 7.0 mi NW 9.2 mph 17.3 mph 0.04 in Rain Light Rain
4:15 PM 37.4 °F 29.3 °F 37.4 °F 100% 29.87 in 4.0 mi NW 12.7 mph 18.4 mph 0.02 in Rain Rain
4:35 PM 35.6 °F 30.7 °F 35.6 °F 100% 29.87 in 2.5 mi WNW 5.8 mph - 0.06 in Snow Light Snow
4:55 PM 35.6 °F 29.9 °F 35.6 °F 100% 29.87 in 3.0 mi NW 6.9 mph - 0.08 in Snow Light Snow
5:15 PM 33.8 °F 28.6 °F 33.8 °F 100% 29.88 in 1.5 mi WNW 5.8 mph - 0.02 in Snow Light Snow
5:35 PM 33.8 °F 28.6 °F 33.8 °F 100% 29.88 in 0.8 mi NW 5.8 mph - 0.04 in Snow Light Snow
5:55 PM 33.8 °F 27.7 °F 33.8 °F 100% 29.88 in 0.8 mi NW 6.9 mph - 0.06 in Snow Light Snow
6:15 PM 33.8 °F 29.6 °F 33.8 °F 100% 29.89 in 1.2 mi NW 4.6 mph - 0.01 in Snow Light Snow
6:35 PM 33.8 °F 27.7 °F 33.8 °F 100% 29.89 in 2.5 mi NW 6.9 mph - 0.02 in Snow Light Snow
6:55 PM 33.8 °F 27.7 °F 33.8 °F 100% 29.89 in 1.0 mi NW 6.9 mph - 0.02 in Snow Light Snow
7:15 PM 33.8 °F 29.6 °F 33.8 °F 100% 29.90 in 1.5 mi NW 4.6 mph - N/A Snow Light Snow
7:35 PM 33.8 °F 27.7 °F 33.8 °F 100% 29.90 in 7.0 mi NNW 6.9 mph - N/A Rain Light Rain
7:55 PM 33.8 °F 27.0 °F 33.8 °F 100% 29.90 in 2.0 mi NW 8.1 mph - N/A Rain Light Rain
8:15 PM 33.8 °F 27.7 °F 33.8 °F 100% 29.90 in 7.0 mi NW 6.9 mph - N/A   Overcast
8:35 PM 33.8 °F 27.0 °F 33.8 °F 100% 29.90 in 7.0 mi WNW 8.1 mph - N/A Rain Light Rain
9:15 PM 33.8 °F 27.0 °F 33.8 °F 100% 29.90 in 7.0 mi NW 8.1 mph 17.3 mph N/A Snow Light Snow
9:35 PM 33.8 °F 27.0 °F 33.8 °F 100% 29.90 in 7.0 mi NW 8.1 mph 18.4 mph N/A Snow Light Snow
9:55 PM 33.8 °F 25.8 °F 33.8 °F 100% 29.90 in 5.0 mi NW 10.4 mph 16.1 mph N/A Snow Light Snow
10:15 PM 33.8 °F 25.3 °F 33.8 °F 100% 29.89 in 4.0 mi NW 11.5 mph - N/A Snow Light Snow
10:35 PM 33.8 °F 26.4 °F 33.8 °F 100% 29.89 in 4.0 mi NNW 9.2 mph - N/A Snow Light Snow
10:55 PM 33.8 °F 25.3 °F 33.8 °F 100% 29.89 in 4.0 mi NNW 11.5 mph 18.4 mph N/A Snow Light Snow
11:15 PM 33.8 °F 27.0 °F 33.8 °F 100% 29.89 in 3.0 mi NW 8.1 mph 17.3 mph N/A Snow Light Snow
11:35 PM 33.8 °F 27.0 °F 33.8 °F 100% 29.89 in 2.5 mi NW 8.1 mph - N/A Snow Light Snow
11:55 PM 33.8 °F 25.8 °F 33.8 °F 100% 29.88 in 3.0 mi NNW 10.4 mph 16.1 mph N/A Snow Light Snow